• In Germany
  • List of Countries
  • For 7 days
  • Water Temperature
  • Satellite Maps
  • Weather Map
  • Weather Widgets
  • user-avatar
    Login

    Hourly Weather Newcastle

    Today, 21 January, Sunday

    Time Temperature Precipitation Wind Pressure Humidity
    00:00 +18°C° 0 mm 2 mps 760 mmHg 96%
    01:00 +18°C° 0 mm 2 mps 760 mmHg 97%
    02:00 +18°C° 0 mm 2 mps 760 mmHg 97%
    03:00 +17°C° 0 mm 2 mps 759 mmHg 97%
    04:00 +17°C° 0 mm 2 mps 759 mmHg 97%
    05:00 +19°C° 0 mm 2 mps 759 mmHg 90%
    06:00 +20°C° 0 mm 2 mps 759 mmHg 83%
    07:00 +23°C° 0 mm 2 mps 759 mmHg 76%
    08:00 +26°C° 0 mm 2 mps 759 mmHg 64%
    09:00 +29°C° 0 mm 2 mps 759 mmHg 51%
    10:00 +33°C° 0 mm 3 mps 759 mmHg 39%
    11:00 +35°C° 0 mm 3 mps 758 mmHg 36%
    12:00 +36°C° 0 mm 4 mps 758 mmHg 33%
    13:00 +38°C° 0 mm 4 mps 757 mmHg 29%
    14:00 +37°C° 0 mm 5 mps 757 mmHg 32%
    15:00 +36°C° 0 mm 5 mps 757 mmHg 34%
    16:00 +36°C° 0 mm 6 mps 756 mmHg 36%
    17:00 +33°C° 0 mm 6 mps 756 mmHg 46%
    18:00 +30°C° 0 mm 6 mps 757 mmHg 55%
    19:00 +27°C° 0 mm 5 mps 757 mmHg 64%
    20:00 +26°C° 0 mm 5 mps 757 mmHg 69%
    21:00 +25°C° 0 mm 5 mps 757 mmHg 74%
    22:00 +22°C° 0 mm 5 mps 758 mmHg 80%
    23:00 +22°C° 0 mm 5 mps 757 mmHg 81%

    Tomorrow, 22 January, Monday

    Time Temperature Precipitation Wind Pressure Humidity
    00:00 +22°C° 0 mm 5 mps 757 mmHg 82%
    01:00 +21°C° 0 mm 5 mps 757 mmHg 83%
    02:00 +21°C° 0 mm 5 mps 756 mmHg 84%
    03:00 +20°C° 0 mm 5 mps 756 mmHg 84%
    04:00 +20°C° 0 mm 4 mps 756 mmHg 84%
    05:00 +21°C° 0 mm 4 mps 756 mmHg 76%
    06:00 +23°C° 0 mm 4 mps 756 mmHg 69%
    07:00 +26°C° 0 mm 3 mps 757 mmHg 61%
    08:00 +30°C° 0 mm 3 mps 757 mmHg 48%
    09:00 +35°C° 0 mm 3 mps 756 mmHg 36%
    10:00 +39°C° 0 mm 3 mps 756 mmHg 24%
    11:00 +42°C° 0 mm 3 mps 756 mmHg 21%
    12:00 +43°C° 0 mm 4 mps 755 mmHg 18%
    13:00 +46°C° 0 mm 5 mps 755 mmHg 15%
    14:00 +45°C° 0 mm 5 mps 754 mmHg 17%
    15:00 +44°C° 0 mm 6 mps 754 mmHg 19%
    16:00 +43°C° 0 mm 7 mps 754 mmHg 21%
    17:00 +39°C° 0 mm 7 mps 754 mmHg 29%
    18:00 +35°C° 0 mm 7 mps 755 mmHg 36%
    19:00 +32°C° 0 mm 7 mps 755 mmHg 43%
    20:00 +30°C° 0 mm 6 mps 756 mmHg 48%
    21:00 +28°C° 0 mm 6 mps 756 mmHg 53%
    22:00 +27°C° 0 mm 5 mps 756 mmHg 58%
    23:00 +26°C° 0 mm 5 mps 756 mmHg 62%

    Day after tomorrow, 23 January, Tuesday

    Time Temperature Precipitation Wind Pressure Humidity
    00:00 +25°C° 0 mm 5 mps 756 mmHg 66%
    01:00 +23°C° 0 mm 4 mps 756 mmHg 69%
    02:00 +22°C° 0 mm 4 mps 755 mmHg 71%
    03:00 +22°C° 0 mm 4 mps 755 mmHg 73%
    04:00 +21°C° 0 mm 3 mps 755 mmHg 75%
    05:00 +24°C° 0 mm 3 mps 756 mmHg 69%
    06:00 +25°C° 0 mm 3 mps 756 mmHg 62%
    07:00 +27°C° 0 mm 3 mps 757 mmHg 56%
    08:00 +31°C° 0 mm 2 mps 757 mmHg 46%
    09:00 +36°C° 0 mm 2 mps 757 mmHg 36%
    10:00 +40°C° 0 mm 2 mps 757 mmHg 26%
    11:00 +40°C° 0 mm 3 mps 757 mmHg 25%
    12:00 +41°C° 0 mm 4 mps 756 mmHg 24%
    13:00 +42°C° 0 mm 5 mps 756 mmHg 22%
    14:00 +40°C° 0 mm 5 mps 756 mmHg 27%
    15:00 +39°C° 0 mm 6 mps 755 mmHg 31%
    16:00 +38°C° 0 mm 6 mps 755 mmHg 36%
    17:00 +34°C° 0 mm 6 mps 756 mmHg 46%
    18:00 +32°C° 0 mm 6 mps 756 mmHg 56%
    19:00 +29°C° 0 mm 6 mps 756 mmHg 65%
    20:00 +28°C° 0 mm 6 mps 757 mmHg 70%
    21:00 +27°C° 0 mm 6 mps 757 mmHg 75%
    22:00 +26°C° 0 mm 6 mps 757 mmHg 79%
    23:00 +24°C° 0 mm 6 mps 757 mmHg 82%

    24 January, Wednesday

    Time Temperature Precipitation Wind Pressure Humidity
    00:00 +25°C° 0 mm 5 mps 757 mmHg 85%
    01:00 +23°C° 0 mm 5 mps 756 mmHg 87%
    02:00 +22°C° 0 mm 4 mps 756 mmHg 90%
    03:00 +22°C° 0 mm 3 mps 757 mmHg 92%
    04:00 +21°C° 0 mm 3 mps 757 mmHg 95%
    05:00 +22°C° 0 mm 3 mps 757 mmHg 90%
    06:00 +24°C° 0 mm 2 mps 758 mmHg 85%
    07:00 +25°C° 0 mm 2 mps 758 mmHg 81%
    08:00 +28°C° 0 mm 3 mps 758 mmHg 69%
    09:00 +31°C° 0 mm 3 mps 758 mmHg 56%
    10:00 +35°C° 0 mm 3 mps 757 mmHg 44%
    11:00 +36°C° 0 mm 4 mps 757 mmHg 40%
    12:00 +37°C° 0 mm 5 mps 756 mmHg 36%
    13:00 +39°C° 0 mm 6 mps 756 mmHg 31%
    14:00 +39°C° 0 mm 6 mps 756 mmHg 35%
    15:00 +38°C° 0 mm 7 mps 755 mmHg 38%
    16:00 +36°C° 0 mm 7 mps 755 mmHg 42%
    17:00 +34°C° 0 mm 7 mps 755 mmHg 50%
    18:00 +30°C° 0 mm 7 mps 755 mmHg 58%
    19:00 +28°C° 0 mm 6 mps 756 mmHg 67%
    20:00 +27°C° 0 mm 6 mps 756 mmHg 71%
    21:00 +26°C° 0 mm 6 mps 757 mmHg 74%
    22:00 +26°C° 0 mm 6 mps 757 mmHg 78%
    23:00 +24°C° 0 mm 6 mps 757 mmHg 82%

    25 January, Thursday

    Time Temperature Precipitation Wind Pressure Humidity
    00:00 +23°C° 0 mm 5 mps 757 mmHg 85%
    01:00 +23°C° 0 mm 5 mps 757 mmHg 88%
    02:00 +22°C° 0 mm 4 mps 757 mmHg 90%
    03:00 +22°C° 0 mm 4 mps 757 mmHg 92%
    04:00 +22°C° 0 mm 4 mps 757 mmHg 94%
    05:00 +24°C° 0 mm 3 mps 757 mmHg 89%
    06:00 +25°C° 0 mm 3 mps 757 mmHg 84%
    07:00 +26°C° 0 mm 3 mps 758 mmHg 79%
    08:00 +29°C° 0 mm 3 mps 758 mmHg 68%
    09:00 +33°C° 0 mm 3 mps 758 mmHg 56%
    10:00 +36°C° 0 mm 3 mps 758 mmHg 45%
    11:00 +38°C° 0 mm 4 mps 757 mmHg 41%
    12:00 +40°C° 0 mm 5 mps 757 mmHg 38%
    13:00 +41°C° 0 mm 5 mps 756 mmHg 35%
    14:00 +40°C° 0 mm 6 mps 756 mmHg 38%
    15:00 +39°C° 0 mm 7 mps 755 mmHg 40%
    16:00 +38°C° 0 mm 8 mps 755 mmHg 43%
    17:00 +35°C° 0 mm 8 mps 755 mmHg 50%
    18:00 +33°C° 0 mm 7 mps 756 mmHg 58%
    19:00 +30°C° 0 mm 7 mps 756 mmHg 65%
    20:00 +30°C° 0.1 mm 7 mps 757 mmHg 68%
    21:00 +29°C° 0.1 mm 6 mps 757 mmHg 71%
    22:00 +28°C° 0.1 mm 6 mps 758 mmHg 75%
    23:00 +27°C° 0 mm 6 mps 758 mmHg 77%

    26 January, Friday

    Time Temperature Precipitation Wind Pressure Humidity
    00:00 +27°C° 0 mm 5 mps 758 mmHg 79%
    01:00 +26°C° 0 mm 5 mps 757 mmHg 81%
    02:00 +26°C° 0 mm 5 mps 758 mmHg 82%
    03:00 +25°C° 0 mm 5 mps 758 mmHg 84%
    04:00 +25°C° 0 mm 5 mps 758 mmHg 85%
    05:00 +26°C° 0 mm 4 mps 758 mmHg 82%
    06:00 +26°C° 0 mm 4 mps 759 mmHg 79%
    07:00 +27°C° 0 mm 4 mps 759 mmHg 76%
    08:00 +30°C° 0 mm 4 mps 760 mmHg 66%
    09:00 +33°C° 0 mm 4 mps 760 mmHg 56%
    10:00 +36°C° 0 mm 4 mps 760 mmHg 45%
    11:00 +37°C° 0 mm 5 mps 759 mmHg 44%
    12:00 +37°C° 0 mm 5 mps 759 mmHg 42%
    13:00 +39°C° 0 mm 6 mps 758 mmHg 40%
    14:00 +38°C° 0 mm 6 mps 758 mmHg 42%
    15:00 +38°C° 0 mm 6 mps 758 mmHg 44%
    16:00 +36°C° 0 mm 7 mps 758 mmHg 46%
    17:00 +34°C° 0 mm 7 mps 758 mmHg 53%
    18:00 +32°C° 0 mm 6 mps 759 mmHg 61%
    19:00 +30°C° 0 mm 6 mps 759 mmHg 68%
    20:00 +29°C° 0 mm 6 mps 759 mmHg 71%
    21:00 +28°C° 0 mm 6 mps 760 mmHg 74%
    22:00 +27°C° 0 mm 6 mps 760 mmHg 77%
    23:00 +27°C° 0 mm 5 mps 760 mmHg 80%
    Show more